MOLNIYA 1-S

Last updated on Dec. 9, 2021, 12:02 a.m. UTC

1 07392U 74060A   21342.52394637 -.00000341  00000+0  00000+0 0  9996
2 07392   5.5947 285.8537 0010154 204.8698 242.4314  1.00287358117619
UTC
Height (km)
Latitude
Longitude
Inclination
Orbital Period
UTC large
Height (km)
Speed (km/s)
/
Latitude / Longitude
Inclination (degrees)
Orbital Period (minutes)
Azimuth
Elevation
Range (km)
Doppler Factor
iOS Compass Heading
iOS Angle